User: anonymous   Login
Location: Sabalos
(43.2860°N, 0.1414°E)
Time: 02:19:57
(UTC+00:00)
Language:

Cosmos 2219 Rocket - Orbit

View from above orbital plane
View from above orbital plane
View from above satellite
View from above satellite

Ground track
Ground track

The orbit data is extracted from the following two-line orbital elements,

1 22220U 92076B   20272.53824891 -.00000013 +00000-0 +17754-4 0  9998
2 22220 071.0003 054.5807 0014929 248.8888 188.2255 14.16458342440277
Epoch (UTC): 28 September 2020 12:55:04
Eccentricity: 0.0014929
inclination: 71.0003°
perigee height: 826 km
apogee height: 848 km
right ascension of ascending node: 54.5807°
argument of perigee: 248.8888°
revolutions per day: 14.16458342
mean anomaly at epoch: 188.2255°
orbit number at epoch: 44027

The dashed part of the orbit path shows where the satellite is in the earth's shadow,  

DLR